GW5755 Weather Reports


Display with metric or nautical units.
time (UTC)temp
F
wind
direction
speed
MPH
gust
MPH
rain 1hr
in
rain 24hr
in
rain mn
in
humidity
%
barometer
mb
20260906153103 95 340 28.0 30.0 0.00 0.00 0.00 26 1006.2
20260906152557 96 336 27.0 31.0 0.00 0.00 0.00 26 1006.3
20260906152057 96 326 25.0 29.0 0.00 0.00 0.00 25 1006.0
20260906151552 96 343 24.0 31.0 0.00 0.00 0.00 25 1006.0
20260906151048 96 338 27.0 31.0 0.00 0.00 0.00 24 1006.1
20260906150543 96 345 24.0 32.0 0.00 0.00 0.00 24 1006.0
20260906150038 97 344 25.0 31.0 0.00 0.00 0.00 24 1006.1
20260906145536 97 346 30.0 32.0 0.00 0.00 0.00 25 1006.2
20260906145032 97 344 26.0 32.0 0.00 0.00 0.00 25 1006.0
20260906144526 98 339 26.0 29.0 0.00 0.00 0.00 25 1006.1
20260906144021 98 343 28.0 33.0 0.00 0.00 0.00 25 1006.0
20260906143516 98 330 29.0 34.0 0.00 0.00 0.00 24 1006.1
20260906143013 99 345 30.0 33.0 0.00 0.00 0.00 24 1006.0
20260906142507 99 334 28.0 32.0 0.00 0.00 0.00 23 1006.0
20260906142002 98 354 23.0 26.0 0.00 0.00 0.00 24 1006.1
20260906141500 99 339 27.0 31.0 0.00 0.00 0.00 24 1006.2
20260906140956 99 21 24.0 32.0 0.00 0.00 0.00 23 1006.1
20260906140450 99 340 29.0 35.0 0.00 0.00 0.00 23 1005.8
20260906135948 99 345 27.0 32.0 0.00 0.00 0.00 23 1005.9
20260906135447 100 348 24.0 27.0 0.00 0.00 0.00 22 1006.0
20260906134943 100 341 24.0 31.0 0.00 0.00 0.00 22 1006.4
20260906134438 100 323 20.0 31.0 0.00 0.00 0.00 24 1006.2
20260906133933 100 345 26.0 29.0 0.00 0.00 0.00 25 1005.9
20260906133429 100 353 26.0 30.0 0.00 0.00 0.00 24 1006.1
20260906132925 99 355 31.0 35.0 0.00 0.00 0.00 22 1006.2
20260906132425 100 5 24.0 26.0 0.00 0.00 0.00 24 1006.1
20260906131920 100 344 31.0 34.0 0.00 0.00 0.00 22 1006.0
20260906131416 100 4 28.0 35.0 0.00 0.00 0.00 22 1006.1
20260906130912 100 349 26.0 33.0 0.00 0.00 0.00 23 1006.0
20260906130411 100 353 31.0 34.0 0.00 0.00 0.00 21 1006.1
20260906125910 100 343 29.0 34.0 0.00 0.00 0.00 23 1006.1
20260906125408 100 349 23.0 30.0 0.00 0.00 0.00 23 1006.4
20260906124902 100 337 28.0 32.0 0.00 0.00 0.00 22 1006.3
20260906124358 100 347 26.0 34.0 0.00 0.00 0.00 21 1006.3
20260906123857 100 346 32.0 38.0 0.00 0.00 0.00 21 1006.3
20260906123352 100 351 30.0 35.0 0.00 0.00 0.00 21 1006.4
20260906122853 100 338 28.0 32.0 0.00 0.00 0.00 21 1006.4
20260906122353 100 326 27.0 35.0 0.00 0.00 0.00 21 1006.4
20260906121850 100 341 28.0 34.0 0.00 0.00 0.00 21 1006.3
20260906121345 99 341 30.0 32.0 0.00 0.00 0.00 21 1006.5
20260906120841 100 357 29.0 35.0 0.00 0.00 0.00 21 1006.5
20260906120337 99 320 31.0 34.0 0.00 0.00 0.00 21 1006.4
20260906115833 99 346 30.0 33.0 0.00 0.00 0.00 22 1006.2
20260906115328 99 340 30.0 35.0 0.00 0.00 0.00 23 1006.5
20260906114827 99 340 30.0 35.0 0.00 0.00 0.00 23 1006.4
20260906114323 99 349 33.0 36.0 0.00 0.00 0.00 22 1006.4
20260906113818 99 338 31.0 36.0 0.00 0.00 0.00 22 1006.6
20260906113317 100 346 27.0 33.0 0.00 0.00 0.00 23 1006.6
20260906112812 100 343 28.0 32.0 0.00 0.00 0.00 21 1007.1
20260906112309 100 338 29.0 33.0 0.00 0.00 0.00 21 1007.0
20260906111808 99 343 23.0 32.0 0.00 0.00 0.00 22 1007.0
20260906111302 100 319 23.0 27.0 0.00 0.00 0.00 22 1007.2
20260906110757 99 348 29.0 33.0 0.00 0.00 0.00 22 1007.2
20260906110253 99 339 25.0 30.0 0.00 0.00 0.00 23 1007.3
20260906105752 99 336 28.0 30.0 0.00 0.00 0.00 23 1007.2
20260906105248 99 5 27.0 34.0 0.00 0.00 0.00 23 1007.2
20260906104743 99 335 27.0 33.0 0.00 0.00 0.00 23 1007.4
20260906104241 98 331 26.0 30.0 0.00 0.00 0.00 23 1007.4
20260906103740 98 358 28.0 32.0 0.00 0.00 0.00 23 1007.5
20260906103234 98 319 30.0 34.0 0.00 0.00 0.00 24 1007.5
20260906102730 98 341 25.0 34.0 0.00 0.00 0.00 23 1007.6
20260906102229 98 338 30.0 36.0 0.00 0.00 0.00 23 1007.6
20260906101724 98 343 31.0 35.0 0.00 0.00 0.00 23 1007.7
20260906101218 98 325 27.0 36.0 0.00 0.00 0.00 23 1007.9
20260906100714 98 337 30.0 35.0 0.00 0.00 0.00 22 1007.9
20260906100214 98 347 28.0 32.0 0.00 0.00 0.00 22 1007.7
20260906095714 98 347 31.0 36.0 0.00 0.00 0.00 22 1007.9
20260906095210 97 352 31.0 34.0 0.00 0.00 0.00 22 1008.1
20260906094708 97 352 31.0 34.0 0.00 0.00 0.00 22 1008.0
20260906094204 97 352 31.0 34.0 0.00 0.00 0.00 22 1007.7
20260906093700 96 340 32.0 36.0 0.00 0.00 0.00 23 1008.1
20260906093156 97 326 31.0 39.0 0.00 0.00 0.00 23 1008.2
20260906092650 96 347 30.0 36.0 0.00 0.00 0.00 24 1008.2
20260906092145 95 338 34.0 35.0 0.00 0.00 0.00 25 1008.3
20260906091641 95 337 32.0 36.0 0.00 0.00 0.00 26 1008.5
20260906091137 95 333 35.0 40.0 0.00 0.00 0.00 25 1008.4
20260906090633 95 350 38.0 42.0 0.00 0.00 0.00 25 1008.4
20260906090132 95 332 35.0 39.0 0.00 0.00 0.00 26 1008.4
20260906085631 95 341 29.0 41.0 0.00 0.00 0.00 26 1008.5
20260906085126 95 340 31.0 38.0 0.00 0.00 0.00 27 1008.3
20260906084620 94 351 33.0 41.0 0.00 0.00 0.00 27 1008.4
20260906084119 94 343 33.0 38.0 0.00 0.00 0.00 27 1008.5
20260906083615 94 350 35.0 38.0 0.00 0.00 0.00 27 1008.7
20260906083114 93 350 32.0 35.0 0.00 0.00 0.00 28 1008.7
20260906082610 93 350 32.0 35.0 0.00 0.00 0.00 28 1008.6
20260906082105 93 332 34.0 36.0 0.00 0.00 0.00 30 1008.6
20260906081601 94 335 35.0 40.0 0.00 0.00 0.00 28 1008.8
20260906081056 94 345 32.0 39.0 0.00 0.00 0.00 28 1008.8
20260906080553 93 17 30.0 41.0 0.00 0.00 0.00 29 1008.5
20260906080043 93 340 33.0 40.0 0.00 0.00 0.00 28 1008.7
20260906075537 93 343 30.0 33.0 0.00 0.00 0.00 30 1008.8
20260906075032 93 334 36.0 40.0 0.00 0.00 0.00 28 1008.8
20260906074526 93 343 29.0 34.0 0.00 0.00 0.00 30 1008.8
20260906074020 93 343 34.0 36.0 0.00 0.00 0.00 30 1008.7
20260906073515 93 337 30.0 34.0 0.00 0.00 0.00 30 1008.9
20260906073011 92 334 27.0 31.0 0.00 0.00 0.00 32 1008.9
20260906072506 92 348 31.0 35.0 0.00 0.00 0.00 30 1008.6
20260906072002 93 338 33.0 38.0 0.00 0.00 0.00 32 1008.9
20260906071458 93 332 30.0 36.0 0.00 0.00 0.00 29 1008.9
20260906070953 92 325 28.0 31.0 0.00 0.00 0.00 29 1008.9
20260906070448 92 347 27.0 31.0 0.00 0.00 0.00 28 1008.7
20260906065944 92 354 34.0 35.0 0.00 0.00 0.00 27 1009.0
20260906065438 92 326 33.0 38.0 0.00 0.00 0.00 29 1008.7
20260906064934 90 338 29.0 34.0 0.00 0.00 0.00 35 1008.9
20260906064429 90 338 29.0 34.0 0.00 0.00 0.00 35 1008.9
20260906063924 90 338 29.0 34.0 0.00 0.00 0.00 35 1009.0
20260906063419 90 338 29.0 34.0 0.00 0.00 0.00 35 1008.8
20260906062915 90 338 29.0 34.0 0.00 0.00 0.00 35 1008.8
20260906062414 90 331 30.0 32.0 0.00 0.00 0.00 35 1008.9
20260906061909 90 331 30.0 32.0 0.00 0.00 0.00 35 1008.9
20260906061406 90 337 24.0 30.0 0.00 0.00 0.00 35 1008.8
20260906060859 90 334 25.0 32.0 0.00 0.00 0.00 32 1009.0
20260906060357 89 334 27.0 31.0 0.00 0.00 0.00 37 1008.8
20260906055853 89 334 27.0 31.0 0.00 0.00 0.00 37 1009.0
20260906055348 89 334 27.0 31.0 0.00 0.00 0.00 37 1009.0
20260906054843 88 332 26.0 27.0 0.00 0.00 0.00 39 1008.9
20260906054338 88 332 26.0 27.0 0.00 0.00 0.00 39 1008.7
20260906053835 88 332 26.0 27.0 0.00 0.00 0.00 39 1008.8
20260906053330 88 335 28.0 31.0 0.00 0.00 0.00 39 1008.7
20260906052826 88 345 21.0 25.0 0.00 0.00 0.00 41 1008.6
20260906052322 87 351 22.0 29.0 0.00 0.00 0.00 41 1008.6
20260906051819 87 344 25.0 29.0 0.00 0.00 0.00 43 1008.7
20260906051318 87 351 29.0 33.0 0.00 0.00 0.00 43 1008.4
20260906050814 87 340 24.0 30.0 0.00 0.00 0.00 43 1008.6
20260906050309 87 336 23.0 25.0 0.00 0.00 0.00 44 1008.6
20260906045808 87 341 23.0 31.0 0.00 0.00 0.00 44 1008.4
20260906045305 86 338 22.0 26.0 0.00 0.00 0.00 44 1008.5
20260906044759 86 351 26.0 32.0 0.00 0.00 0.00 46 1008.5
20260906044253 86 340 22.0 26.0 0.00 0.00 0.00 47 1008.5
20260906043749 86 340 24.0 26.0 0.00 0.00 0.00 47 1008.5
20260906043245 86 337 24.0 29.0 0.00 0.00 0.00 47 1008.3
20260906042744 86 326 24.0 26.0 0.00 0.00 0.00 46 1008.4
20260906042243 86 345 21.0 25.0 0.00 0.00 0.00 46 1008.3
20260906041739 85 357 24.0 26.0 0.00 0.00 0.00 46 1008.1
20260906041234 85 338 22.0 25.0 0.00 0.00 0.00 47 1008.2
20260906040730 85 10 18.0 22.0 0.00 0.00 0.00 48 1007.9
20260906040225 85 333 19.0 25.0 0.00 0.00 0.00 48 1008.1
20260906035720 85 346 19.0 22.0 0.00 0.00 0.00 47 1008.2
20260906035216 85 343 24.0 26.0 0.00 0.00 0.00 48 1008.0
20260906034716 85 328 21.0 25.0 0.00 0.00 0.00 48 1008.1
20260906034211 85 2 23.0 25.0 0.00 0.00 0.00 47 1008.0
20260906033707 85 9 21.0 26.0 0.00 0.00 0.00 47 1008.1
20260906033206 85 335 20.0 25.0 0.00 0.00 0.00 46 1007.8
20260906032703 85 345 25.0 29.0 0.00 0.00 0.00 45 1007.9
20260906032158 85 346 21.0 25.0 0.00 0.00 0.00 45 1007.9
20260906031653 85 333 23.0 29.0 0.00 0.00 0.00 46 1007.7
20260906031148 85 346 23.0 26.0 0.00 0.00 0.00 46 1007.6
20260906030647 85 356 22.0 31.0 0.00 0.00 0.00 46 1007.7
20260906030143 85 346 25.0 27.0 0.00 0.00 0.00 47 1007.7
20260906025642 85 331 23.0 26.0 0.00 0.00 0.00 46 1007.6
20260906025142 85 335 23.0 26.0 0.00 0.00 0.00 46 1007.5
20260906024636 86 333 21.0 31.0 0.00 0.00 0.00 45 1007.7
20260906024130 86 330 23.0 29.0 0.00 0.00 0.00 44 1007.7
20260906023627 86 345 20.0 31.0 0.00 0.00 0.00 43 1007.6
20260906023126 86 348 24.0 26.0 0.00 0.00 0.00 42 1007.8
20260906022622 86 346 22.0 25.0 0.00 0.00 0.00 42 1007.3
20260906022117 86 322 21.0 24.0 0.00 0.00 0.00 42 1007.4
20260906021613 86 344 23.0 26.0 0.00 0.00 0.00 42 1007.5
20260906021111 86 339 21.0 23.0 0.00 0.00 0.00 42 1007.5
20260906020611 86 336 21.0 30.0 0.00 0.00 0.00 42 1007.6
20260906020106 86 350 23.0 25.0 0.00 0.00 0.00 44 1007.5
20260906015606 86 342 26.0 30.0 0.00 0.00 0.00 45 1007.6
20260906015104 86 332 26.0 31.0 0.00 0.00 0.00 45 1007.4
20260906014559 86 341 25.0 27.0 0.00 0.00 0.00 45 1007.4
20260906014056 86 341 21.0 29.0 0.00 0.00 0.00 45 1007.5
20260906013551 86 343 24.0 26.0 0.00 0.00 0.00 43 1007.4
20260906013046 86 312 24.0 26.0 0.00 0.00 0.00 44 1007.4
20260906012541 86 334 25.0 30.0 0.00 0.00 0.00 44 1007.2
20260906012040 86 346 23.0 27.0 0.00 0.00 0.00 45 1007.2
20260906011537 86 347 25.0 29.0 0.00 0.00 0.00 44 1007.0
20260906011036 86 343 23.0 25.0 0.00 0.00 0.00 45 1007.2
20260906010532 86 321 21.0 26.0 0.00 0.00 0.00 44 1007.3
20260906010028 86 348 24.0 30.0 0.00 0.00 0.00 43 1007.3
20260906005527 87 333 23.0 26.0 0.00 0.00 0.00 43 1007.2
20260906005026 87 348 26.0 29.0 0.00 0.00 0.00 42 1007.2
20260906004520 87 345 27.0 33.0 0.00 0.00 0.00 41 1007.1
20260906004016 87 339 26.0 29.0 0.00 0.00 0.00 41 1007.1
20260906003511 87 340 29.0 31.0 0.00 0.00 0.00 42 1007.3
20260906003007 87 338 28.0 31.0 0.00 0.00 0.00 43 1007.2
20260906002507 87 345 25.0 27.0 0.00 0.00 0.00 42 1007.1
20260906002001 87 320 28.0 34.0 0.00 0.00 0.00 42 1007.2
20260906001458 87 334 29.0 32.0 0.00 0.00 0.00 42 1007.0
20260906000952 87 321 27.0 31.0 0.00 0.00 0.00 42 1006.9
20260906000448 87 335 27.0 31.0 0.00 0.00 0.00 42 1007.2
20260905235947 87 352 24.0 27.0 0.00 0.00 0.00 42 1007.2
20260905235441 87 352 24.0 27.0 0.00 0.00 0.00 42 1007.1
20260905234937 87 326 23.0 26.0 0.00 0.00 0.00 43 1007.1
20260905234432 87 353 24.0 26.0 0.00 0.00 0.00 44 1007.0
20260905233926 87 345 24.0 31.0 0.00 0.00 0.00 44 1007.0
20260905233422 87 332 26.0 27.0 0.00 0.00 0.00 43 1007.0
20260905232920 87 332 26.0 27.0 0.00 0.00 0.00 43 1007.2
20260905232417 87 332 22.0 24.0 0.00 0.00 0.00 44 1007.2
20260905231912 87 332 22.0 24.0 0.00 0.00 0.00 44 1007.4
20260905231408 87 11 29.0 32.0 0.00 0.00 0.00 44 1007.1
20260905230904 87 343 22.0 24.0 0.00 0.00 0.00 45 1007.1
20260905230402 87 333 27.0 30.0 0.00 0.00 0.00 45 1007.2
20260905225901 88 344 25.0 27.0 0.00 0.00 0.00 45 1007.3
20260905225356 88 344 25.0 27.0 0.00 0.00 0.00 45 1007.2
20260905224851 88 331 23.0 26.0 0.00 0.00 0.00 45 1007.2
20260905224348 88 331 23.0 26.0 0.00 0.00 0.00 45 1007.4
20260905223842 88 331 23.0 27.0 0.00 0.00 0.00 45 1007.3
20260905223339 88 337 23.0 25.0 0.00 0.00 0.00 46 1007.3
20260905222839 88 338 18.0 22.0 0.00 0.00 0.00 45 1007.1
20260905222338 88 335 26.0 30.0 0.00 0.00 0.00 46 1007.3
20260905221834 88 335 26.0 30.0 0.00 0.00 0.00 46 1007.2
20260905221331 88 338 26.0 30.0 0.00 0.00 0.00 46 1007.2
20260905220827 88 358 19.0 21.0 0.00 0.00 0.00 47 1007.4
20260905220323 88 347 30.0 33.0 0.00 0.00 0.00 46 1007.3
20260905215822 89 346 22.0 25.0 0.00 0.00 0.00 47 1007.4
20260905215318 89 346 22.0 25.0 0.00 0.00 0.00 47 1007.4
20260905214814 89 339 19.0 27.0 0.00 0.00 0.00 47 1007.7
20260905214309 89 336 18.0 19.0 0.00 0.00 0.00 47 1007.4
20260905213805 89 336 31.0 34.0 0.00 0.00 0.00 47 1007.8
20260905213301 89 340 28.0 32.0 0.00 0.00 0.00 48 1007.4
20260905212801 89 340 28.0 32.0 0.00 0.00 0.00 48 1007.5
20260905212301 89 343 21.0 25.0 0.00 0.00 0.00 48 1008.1
20260905211801 89 350 24.0 26.0 0.00 0.00 0.00 48 1007.8
20260905211255 89 336 24.0 29.0 0.00 0.00 0.00 46 1007.5
20260905210753 89 325 20.0 23.0 0.00 0.00 0.00 46 1007.7
20260905210252 89 325 20.0 23.0 0.00 0.00 0.00 46 1007.7
20260905205751 89 347 25.0 27.0 0.00 0.00 0.00 45 1007.8
20260905205246 89 347 25.0 27.0 0.00 0.00 0.00 45 1007.7
20260905204745 89 344 23.0 25.0 0.00 0.00 0.00 45 1007.7
20260905204241 89 339 22.0 25.0 0.00 0.00 0.00 44 1007.7
20260905203740 90 338 19.0 22.0 0.00 0.00 0.00 44 1007.7
20260905203236 90 350 19.0 21.0 0.00 0.00 0.00 42 1007.8
20260905202732 90 350 19.0 21.0 0.00 0.00 0.00 42 1007.7
20260905202227 90 325 21.0 23.0 0.00 0.00 0.00 42 1007.8
20260905201722 90 328 18.0 21.0 0.00 0.00 0.00 42 1007.9
20260905201223 91 351 23.0 25.0 0.00 0.00 0.00 40 1008.0
20260905200718 91 351 23.0 25.0 0.00 0.00 0.00 40 1008.0
20260905200214 91 351 23.0 25.0 0.00 0.00 0.00 40 1007.8
20260905195712 91 351 23.0 25.0 0.00 0.00 0.00 40 1007.9
20260905195212 91 351 23.0 25.0 0.00 0.00 0.00 40 1007.9
20260905194708 91 351 23.0 25.0 0.00 0.00 0.00 40 1007.8
20260905194207 91 349 19.0 22.0 0.00 0.00 0.00 40 1007.7
20260905193701 91 340 23.0 26.0 0.00 0.00 0.00 40 1007.7
20260905193156 91 348 21.0 26.0 0.00 0.00 0.00 40 1007.6
20260905192652 92 346 23.0 25.0 0.00 0.00 0.00 37 1007.9
20260905192149 92 346 23.0 25.0 0.00 0.00 0.00 37 1007.7
20260905191648 92 346 23.0 25.0 0.00 0.00 0.00 37 1007.8
20260905191146 92 346 23.0 25.0 0.00 0.00 0.00 37 1007.7
20260905190645 92 346 23.0 25.0 0.00 0.00 0.00 37 1007.7
20260905190144 92 346 23.0 25.0 0.00 0.00 0.00 37 1007.6
20260905185643 92 346 23.0 25.0 0.00 0.00 0.00 37 1007.6
20260905185138 92 346 23.0 25.0 0.00 0.00 0.00 37 1007.6
20260905184637 92 330 24.0 27.0 0.00 0.00 0.00 38 1007.5
20260905184136 92 332 22.0 24.0 0.00 0.00 0.00 38 1007.4
20260905183636 92 332 22.0 24.0 0.00 0.00 0.00 38 1007.4
20260905183131 92 332 22.0 24.0 0.00 0.00 0.00 38 1007.4
20260905182630 92 347 21.0 24.0 0.00 0.00 0.00 38 1007.4
20260905182130 92 344 22.0 24.0 0.00 0.00 0.00 38 1007.3
20260905181625 91 345 15.0 17.0 0.00 0.00 0.00 37 1007.5
20260905181124 91 345 15.0 17.0 0.00 0.00 0.00 37 1007.5
20260905180619 91 345 15.0 17.0 0.00 0.00 0.00 37 1007.7
20260905180115 90 275 2.0 4.0 0.00 0.00 0.00 42 1007.5
20260905175614 90 275 2.0 4.0 0.00 0.00 0.00 42 1007.6
20260905175109 90 275 2.0 4.0 0.00 0.00 0.00 42 1007.6
20260905174605 90 275 2.0 4.0 0.00 0.00 0.00 42 1007.5
20260905174100 90 275 2.0 4.0 0.00 0.00 0.00 42 1007.6
20260905173557 90 275 2.0 4.0 0.00 0.00 0.00 42 1007.7
20260905173052 90 275 2.0 4.0 0.00 0.00 0.00 42 1007.5
20260905172550 89 216 4.0 4.0 0.00 0.00 0.00 50 1007.6
20260905172046 89 216 4.0 4.0 0.00 0.00 0.00 50 1007.5
20260905171542 88 201 6.0 7.0 0.00 0.00 0.00 58 1007.7
20260905171038 88 201 6.0 7.0 0.00 0.00 0.00 58 1007.5
20260905170534 88 206 3.0 3.0 0.00 0.00 0.00 58 1007.3
20260905170029 88 210 3.0 3.0 0.00 0.00 0.00 56 1007.3
20260905165525 88 250 4.0 6.0 0.00 0.00 0.00 59 1007.1
20260905165020 88 251 4.0 4.0 0.00 0.00 0.00 57 1007.3
20260905164520 88 251 4.0 4.0 0.00 0.00 0.00 57 1007.2
20260905164014 89 251 4.0 6.0 0.00 0.00 0.00 57 1006.9
20260905163511 88 257 4.0 4.0 0.00 0.00 0.00 54 1007.2
20260905163006 88 259 4.0 6.0 0.00 0.00 0.00 54 1007.1
20260905162502 88 263 4.0 4.0 0.00 0.00 0.00 55 1007.0
20260905161957 88 260 4.0 4.0 0.00 0.00 0.00 57 1006.7
20260905161456 88 260 5.0 6.0 0.00 0.00 0.00 56 1006.9
20260905160954 88 276 6.0 6.0 0.00 0.00 0.00 56 1006.7
20260905160448 88 276 6.0 7.0 0.00 0.00 0.00 56 1006.8
20260905155947 89 269 6.0 7.0 0.00 0.00 0.00 55 1006.8
20260905155443 89 269 6.0 7.0 0.00 0.00 0.00 55 1007.0
20260905154941 89 266 5.0 7.0 0.00 0.00 0.00 55 1006.8
20260905154436 89 277 5.0 6.0 0.00 0.00 0.00 55 1006.9
20260905153932 89 271 6.0 8.0 0.00 0.00 0.00 54 1006.6
20260905153428 89 276 7.0 8.0 0.00 0.00 0.00 53 1006.6